Regional Weather Roundup
Issued by NWS State College, PA

Home | Current Version | Previous Version | Graphics & Text | Print | Product List | Glossary Off
Versions: 1 2 3 4 5 6 7 8 9 10 11 12 13 14 15 16 17 18 19 20 21 22 23 24 25 26 27 28 29 30 31 32 33 34 35 36 37 38 39 40 41 42 43 44 45 46 47 48 49 50

000
ASUS41 KCTP 230610
RWRCTP

REGIONAL WEATHER ROUNDUP
NATIONAL WEATHER SERVICE STATE COLLEGE PA
200 AM EDT WED JUL 23 2014

Note: "fair" indicates few or no clouds below 12,000 feet with no
significant weather and/or obstructions to visibility.

* = STATION THAT DOES NOT REPORT PRECIPITATION /E.G. RAIN...SNOW...ETC/
    THUNDER OR FOG.

PAZ002>004-007>009-013>016-020>023-029>032-230700-
WESTERN PENNSYLVANIA

CITY           SKY/WX    TMP DP  RH WIND       PRES   REMARKS
ERIE           PTCLDY    78  68  71 SW9       29.96F
MEADVILLE      NOT AVBL
FRANKLIN*      PTCLDY    70  64  83 SW7       30.06S
NEW CASTLE       N/A     72  69  90 CALM      30.03F
BEAVER COUNTY  NOT AVBL
BUTLER*        CLEAR     70  66  88 S3        30.07R
PITTSBURGH INT CLEAR     76  69  79 SW3       30.04S
PITTSBURGH     CLEAR     76  67  73 SW7       30.04S
INDIANA*       MOCLDY    70  68  94 CALM      30.10S
LATROBE        CLEAR     72  72 100 CALM      30.06S
WASHINGTON CO* CLEAR     66  64  94 CALM      30.06S
$$

PAZ004>006-010>012-017>019-024>028-033>037-041-042-045-046-049>053-230700-
CENTRAL PENNSYLVANIA

CITY           SKY/WX    TMP DP  RH WIND       PRES   REMARKS
BRADFORD       CLEAR     70  66  87 CALM      30.06F
DUBOIS         CLEAR     72  68  87 CALM      30.06S
CLEARFIELD     PTCLDY    69  68  96 CALM      30.06F
JOHNSTOWN      CLEAR     68  66  93 W5        30.11S
ALTOONA        CLEAR     71  69  93 S3        30.07F
STATE COLLEGE  CLEAR     72  69  88 SW5       30.05F
WILLIAMSPORT   CLEAR     73  68  84 N3        30.00F
SELINSGROVE    CLEAR     72  69  90 CALM      30.03S
FT INDIANTOWN  CLEAR     68  68 100 CALM      30.05F
CAPITAL CITY   CLEAR     75  68  78 VRB5      30.03F
HARRISBURG     PTCLDY    76  68  76 S7        30.03F
YORK           CLEAR     71  67  87 CALM      30.04F
$$

PAZ038>040-043-044-047-048-054-055-060>062-067>071-230700-
EASTERN PENNSYLVANIA

CITY           SKY/WX    TMP DP  RH WIND       PRES   REMARKS
SCRANTON       CLEAR     74  67  78 SW5       30.04F
MOUNT POCONO   CLEAR     69  65  86 W8        30.08F
ALLENTOWN      CLEAR     70  65  84 CALM      30.04F
QUAKERTOWN*    CLEAR     68  64  88 CALM      30.06S
READING        CLEAR     73  65  75 CALM      30.04S
LANCASTER      CLEAR     72  65  78 CALM      30.05S
COATESVILLE    CLEAR     70  70 100 CALM      30.07F
POTTSTOWN      CLEAR     69  65  86 CALM      30.06F
BLUE BELL      CLEAR     68  64  88 CALM      30.04F
DOYLESTOWN     CLEAR     70  62  76 S3        30.04F
WILLOW GROVE   NOT AVBL
NORTH PHILA    PTCLDY    74  61  63 CALM      30.05F
PHILADELPHIA   PTCLDY    73  64  73 S6        30.05F
$$



USA.gov is the U.S. government's official web portal to all federal, state and local government web resources and services.